Weather Roundup
Issued by NWS Chicago, IL

Home | Current Version | Previous Version | Text Only | Print | Product List | Glossary On
Versions: 1 2 3 4 5 6 7 8 9 10 11 12 13 14 15 16 17 18 19 20 21 22 23 24 25 26 27 28 29 30 31 32 33 34 35 36 37 38 39 40 41 42 43 44 45 46 47 48 49 50
000
NZUS59 KLOT 261308
HRRLOT

CHICAGO AREA WEATHER ROUNDUP
NATIONAL WEATHER SERVICE CHICAGO/ROMEOVILLE IL
700 AM CST SUN FEB 26 2017

NOTE: "FAIR" INDICATES FEW OR NO CLOUDS BELOW 12,000 FEET WITH NO
SIGNIFICANT WEATHER AND/OR OBSTRUCTIONS TO VISIBILITY.

* THESE STATIONS ARE NOT UNDER NWS QUALITY CONTROL. THEY ALSO MAY NOT
  REPORT WEATHER SUCH AS PRECIPITATION OR FOG.

ILZ005-006-012>014-019>023-261400-
NORTHEAST ILLINOIS

CITY           SKY/WX    TMP DP  RH WIND       PRES   REMARKS
OHARE          CLOUDY    27  19  72 S10       30.00F WCI  17
MIDWAY         CLOUDY    26  17  68 S10       30.02F WCI  16
AURORA         CLOUDY    27  18  69 S12       30.00F WCI  17
LANSING*       CLOUDY    24  21  87 S8        30.05S WCI  16
JOLIET*        CLOUDY    28  21  77 S5        30.04S WCI  22
WAUKEGAN       CLOUDY    26  18  71 S12       29.97F WCI  16
DUPAGE AIRPORT CLOUDY    26  19  74 S12       29.99F WCI  16
WHEELING       CLOUDY    26  18  71 S10       30.01F WCI  16
KANKAKEE*      CLOUDY    25  19  75 S9        30.07S WCI  16
MORRIS*        CLOUDY    26  20  79 S7        30.02F WCI  18
LEWIS AIRPORT* CLOUDY    25  22  91 S9        30.02F WCI  15
NORTHERLY ISL    N/A     26  18  71 S13         N/A  WCI  15
$$

WIZ051-052-058>065-066-070>072-261400-
SOUTHEAST WISCONSIN

CITY           SKY/WX    TMP DP  RH WIND       PRES   REMARKS
MILWAUKEE      CLOUDY    27  18  69 S12       29.94F WCI  17
KENOSHA*       CLOUDY    26  18  71 S12       29.96F WCI  16
RACINE*        CLOUDY    27  17  66 S10       29.97F WCI  17
WAUKESHA       CLOUDY    21  16  79 S7        29.93F WCI  13
WEST BEND      CLOUDY    23  19  86 S6        29.89F WCI  16
$$

INZ001>003-010>013-019-020-261400-
NORTHWEST INDIANA

CITY           SKY/WX    TMP DP  RH WIND       PRES   REMARKS
GARY*          CLOUDY    27  19  74 S8        30.05F WCI  18
MICHIGAN CITY* NOT AVBL
RENSSELAER*    NOT AVBL
VALPARAISO     CLOUDY    23  19  85 S8        30.06S WCI  14
$$

LMZ740>746-261400-
SOUTHERN LAKE MICHIGAN

STATION/POSITION TIME  SKY/WX   TEMP WIND        PRES    VSBY
                                AIR  DIR/SP/G
                 (UTC)          (F)  (DEG/KT/KT) (MB)    (MI)
HARRISON CRIB    1240            29  190/ 15/ 18   N/A
BURNHAM HARBOR   1300            27  180/  9/ 12   N/A
CALUMET HARBOR   1248            25  170/ 11/ 14 1016.5F
BURNS HARBOR     1240            24  180/ 10/ 16 1017.9S
MICHIGAN CITY    1240            23  140/ 12/ 14   N/A
$$

ABBREVIATIONS USED IN REMARKS
   TC - TEMPERATURE IN CELSIUS
  WCI - WIND CHILL INDEX
   HX - HEAT INDEX
  VSB - VISIBILITY
$$




USA.gov is the U.S. government's official web portal to all federal, state and local government web resources and services.